Flag for Canada Weather past 2 weeks in Saguenay, Quebec, Canada

Now
63 °F

Mild.


Feels Like: 63 °F
Forecast: 48 / 79 °F
Wind: 9 mph from Northwest

Location: Jonquiere Airport

Current Time: Jul 24, 2014 at 9:46:54 PM

Latest Report: Jul 24, 2014 at 9:00 PM


Visibility: N/A

Pressure: 29.85 "Hg

Humidity: 65%

Dew point: 51 °F

Location of SaguenayLocation

Historic Weather in Saguenay — Graph

°F

Saguenay temperature yesterday

Maximum temperature yesterday: 77 °F (at 8:00 AM)
Minimum temperature yesterday: 56 °F (at 11:00 PM)
Average temperature yesterday: 70 °F

Past Weeks' High & Low Weather Summary

 TemperatureHumidityPressure
High84 °F (Jul 22, 12:00 PM)100% (Jul 11, 5:00 AM)30.27 "Hg (Jul 11, 5:00 AM)
Low49 °F (Jul 11, 5:00 AM)34% (Jul 12, 4:00 PM)29.60 "Hg (Jul 13, 9:00 PM)
Average68 °F67%29.95 "Hg
* Reported Jul 9 8:00 PM — Jul 24 8:00 PM, Saguenay, Weather by CustomWeather, © 2014

Note: Actual official high and low records may vary slightly from our data, if they occured in-between our weather recording intervals... More about our weather records

Advertising

Saguenay weather history for previous 24 hours

 ConditionsComfort  
Time TempWeatherWind HumidityBarometerVisibility
8:00 PM
Jul 24
67 °FMild.8 mph55%29.81 "HgN/A
7:00 PM69 °FMild.9 mph47%29.80 "HgN/A
6:00 PM71 °FMild.10 mph44%29.80 "HgN/A
5:00 PM70 °FMild.9 mph41%29.81 "HgN/A
4:00 PM73 °FMild.7 mph37%29.82 "HgN/A
3:00 PM72 °FMild.6 mph34%29.84 "HgN/A
2:00 PM70 °FMild.7 mph36%29.86 "HgN/A
1:00 PM67 °FMild.10 mph41%29.89 "HgN/A
12:00 PM65 °FMild.6 mph44%29.90 "HgN/A
11:00 AM64 °FMild.6 mph44%29.92 "HgN/A
10:00 AM62 °FRefreshingly cool.3 mph48%29.94 "HgN/A
9:00 AM59 °FRefreshingly cool.5 mph56%29.95 "HgN/A
8:00 AM58 °FRefreshingly cool.5 mph59%29.94 "HgN/A
7:00 AM55 °FCool.5 mph67%29.93 "HgN/A
6:00 AM54 °FCool.7 mph68%29.93 "HgN/A
5:00 AM54 °FCool.7 mph68%29.92 "HgN/A
4:00 AM56 °FRefreshingly cool.8 mph60%29.92 "HgN/A
3:00 AM56 °FRefreshingly cool.8 mph56%29.92 "HgN/A
2:00 AM56 °FRefreshingly cool.9 mph55%29.93 "HgN/A
1:00 AM56 °FRefreshingly cool.12 mph59%29.93 "HgN/A
12:00 AM55 °FCool.9 mph62%29.92 "HgN/A
11:00 PM
Jul 23
56 °FCool.13 mph61%29.91 "HgN/A
10:00 PM58 °FCool.13 mph60%29.89 "HgN/A
9:00 PM62 °FRefreshingly cool.14 mph55%29.86 "HgN/A
Weather by CustomWeather, © 2014

See weather overviewHow to use our weather pages